FENGYUN 4A

Last updated on Wed Sep 17 2025 00:02:22 GMT+0000 (Coordinated Universal Time)

1 41882U 16077A 25259.60977192 -.00000376 00000+0 00000+0 0 9993 2 41882 1.6225 83.1862 0007099 161.0564 94.7413 1.00268244 32186
UTC large
Height (km)
Speed (km/s)
/
Latitude / Longitude
Inclination (degrees)
Orbital Period (minutes)
Azimuth
Elevation
Range (km)
Doppler Factor

Next 0 passes for location: London (51.5072 / 0.1276)

Sorry there are no passes over London.